| time (UTC) | temp C | wind direction | speed KPH | gust KPH | rain 1hr cm | rain 24hr cm | rain mn cm | humidity % | barometer mb |
| 20260505035535 | 1 | 28 | 0.0 | 3.2 | 0.00 | 0.03 | 0.03 | 88 | 1004.3 |
| 20260505035035 | 1 | 22 | 0.0 | 3.2 | 0.00 | 0.03 | 0.03 | 88 | 1004.5 |
| 20260505034535 | 1 | 11 | 0.0 | 4.8 | 0.00 | 0.03 | 0.03 | 88 | 1004.4 |
| 20260505034035 | 1 | 344 | 0.0 | 9.7 | 0.00 | 0.03 | 0.03 | 87 | 1004.4 |
| 20260505033535 | 1 | 348 | 1.6 | 9.7 | 0.00 | 0.03 | 0.03 | 87 | 1004.3 |
| 20260505033034 | 1 | 19 | 3.2 | 6.4 | 0.00 | 0.03 | 0.03 | 88 | 1004.3 |
| 20260505032535 | 1 | 127 | 1.6 | 3.2 | 0.00 | 0.03 | 0.03 | 88 | 1004.2 |
| 20260505031529 | 2 | 128 | 0.0 | 1.6 | 0.00 | 0.03 | 0.03 | 88 | 1004.0 |
| 20260505031027 | 2 | 128 | 0.0 | 1.6 | 0.00 | 0.03 | 0.03 | 87 | 1003.8 |
| 20260505030525 | 2 | 128 | 0.0 | 1.6 | 0.00 | 0.03 | 0.03 | 87 | 1003.4 |
| 20260505030023 | 2 | 128 | 0.0 | 9.7 | 0.00 | 0.03 | 0.03 | 86 | 1003.2 |
| 20260505025521 | 2 | 128 | 1.6 | 9.7 | 0.00 | 0.03 | 0.03 | 86 | 1003.3 |
| 20260505025017 | 2 | 121 | 4.8 | 9.7 | 0.00 | 0.03 | 0.03 | 85 | 1003.3 |
| 20260505024514 | 2 | 122 | 1.6 | 8.0 | 0.00 | 0.03 | 0.03 | 82 | 1003.3 |
| 20260505024012 | 2 | 213 | 0.0 | 1.6 | 0.00 | 0.03 | 0.03 | 82 | 1003.0 |
| 20260505023509 | 2 | 213 | 0.0 | 3.2 | 0.00 | 0.03 | 0.03 | 81 | 1002.9 |
| 20260505023006 | 2 | 213 | 0.0 | 3.2 | 0.00 | 0.03 | 0.03 | 81 | 1002.8 |
| 20260505022505 | 2 | 215 | 0.0 | 3.2 | 0.03 | 0.03 | 0.03 | 81 | 1002.7 |
| 20260505022001 | 2 | 217 | 0.0 | 0.0 | 0.03 | 0.03 | 0.03 | 80 | 1002.8 |
| 20260505021601 | 2 | 217 | 0.0 | 1.6 | 0.03 | 0.03 | 0.03 | 79 | 1002.7 |
| 20260505021158 | 2 | 217 | 0.0 | 1.6 | 0.03 | 0.03 | 0.03 | 78 | 1002.6 |
| 20260505020554 | 2 | 217 | 0.0 | 0.0 | 0.03 | 0.03 | 0.03 | 78 | 1002.5 |
| 20260505020153 | 3 | 217 | 0.0 | 1.6 | 0.03 | 0.03 | 0.03 | 77 | 1002.6 |
| 20260505015551 | 3 | 217 | 0.0 | 8.0 | 0.03 | 0.03 | 0.03 | 77 | 1002.5 |
| 20260505015052 | 3 | 166 | 3.2 | 9.7 | 0.03 | 0.03 | 0.03 | 76 | 1002.3 |
| 20260505014551 | 2 | 168 | 1.6 | 6.4 | 0.03 | 0.03 | 0.03 | 76 | 1002.5 |
| 20260505013541 | 2 | 279 | 8.0 | 22.5 | 0.03 | 0.03 | 0.03 | 81 | 1002.6 |
| 20260505013039 | 3 | 274 | 9.7 | 24.1 | 0.03 | 0.03 | 0.03 | 79 | 1002.9 |
| 20260505012534 | 3 | 291 | 12.9 | 24.1 | 0.00 | 0.00 | 0.00 | 75 | 1002.7 |
| 20260505012032 | 3 | 180 | 1.6 | 12.9 | 0.00 | 0.00 | 0.00 | 73 | 1002.4 |
| 20260505011532 | 4 | 246 | 3.2 | 19.3 | 0.00 | 0.00 | 0.00 | 71 | 1002.5 |
| 20260505011027 | 5 | 184 | 3.2 | 11.3 | 0.00 | 0.00 | 0.00 | 71 | 1002.7 |
| 20260505010524 | 5 | 163 | 0.0 | 8.0 | 0.00 | 0.00 | 0.00 | 70 | 1002.5 |
| 20260505010023 | 5 | 134 | 4.8 | 8.0 | 0.00 | 0.00 | 0.00 | 71 | 1002.1 |
| 20260505005520 | 5 | 132 | 3.2 | 12.9 | 0.00 | 0.00 | 0.00 | 68 | 1002.1 |
| 20260505005118 | 6 | 111 | 1.6 | 12.9 | 0.00 | 0.00 | 0.00 | 67 | 1002.0 |
| 20260505004515 | 6 | 86 | 1.6 | 8.0 | 0.00 | 0.00 | 0.00 | 63 | 1001.9 |
| 20260505004012 | 7 | 44 | 0.0 | 8.0 | 0.00 | 0.00 | 0.00 | 54 | 1001.9 |
| 20260505003511 | 7 | 43 | 1.6 | 8.0 | 0.00 | 0.00 | 0.00 | 54 | 1001.8 |
| 20260505003017 | 7 | 39 | 0.0 | 6.4 | 0.00 | 0.00 | 0.00 | 54 | 1002.0 |
| 20260505002605 | 7 | 40 | 1.6 | 4.8 | 0.00 | 0.00 | 0.00 | 55 | 1002.0 |
| 20260505002002 | 7 | 62 | 0.0 | 3.2 | 0.00 | 0.00 | 0.00 | 55 | 1002.1 |
| 20260505001605 | 7 | 67 | 0.0 | 6.4 | 0.00 | 0.00 | 0.00 | 55 | 1002.1 |
| 20260505001057 | 7 | 42 | 0.0 | 6.4 | 0.00 | 0.00 | 0.00 | 55 | 1002.1 |
| 20260505000558 | 7 | 26 | 0.0 | 6.4 | 0.00 | 0.00 | 0.00 | 55 | 1002.2 |
| 20260505000055 | 7 | 360 | 1.6 | 8.0 | 0.00 | 0.00 | 0.00 | 55 | 1002.0 |
| 20260504235550 | 7 | 40 | 0.0 | 9.7 | 0.00 | 0.00 | 0.00 | 56 | 1002.3 |
| 20260504235048 | 7 | 16 | 1.6 | 9.7 | 0.00 | 0.00 | 0.00 | 55 | 1002.4 |
| 20260504234545 | 7 | 330 | 1.6 | 9.7 | 0.00 | 0.00 | 0.00 | 56 | 1002.4 |
| 20260504234042 | 7 | 331 | 3.2 | 16.1 | 0.00 | 0.00 | 0.00 | 56 | 1002.4 |
| 20260504233541 | 7 | 305 | 6.4 | 17.7 | 0.00 | 0.00 | 0.00 | 57 | 1002.3 |
| 20260504233139 | 7 | 333 | 6.4 | 22.5 | 0.00 | 0.00 | 0.00 | 58 | 1002.4 |
| 20260504232636 | 7 | 291 | 8.0 | 22.5 | 0.00 | 0.00 | 0.00 | 58 | 1002.3 |
| 20260504232034 | 7 | 317 | 9.7 | 22.5 | 0.00 | 0.00 | 0.00 | 57 | 1002.3 |
| 20260504231541 | 6 | 311 | 9.7 | 25.7 | 0.00 | 0.00 | 0.00 | 57 | 1002.3 |
| 20260504231033 | 6 | 288 | 16.1 | 25.7 | 0.00 | 0.00 | 0.00 | 57 | 1002.1 |
| 20260504230531 | 7 | 298 | 14.5 | 40.2 | 0.00 | 0.00 | 0.00 | 53 | 1002.0 |
| 20260504230029 | 8 | 246 | 16.1 | 40.2 | 0.00 | 0.00 | 0.00 | 48 | 1002.1 |
| 20260504225526 | 9 | 324 | 8.0 | 14.5 | 0.00 | 0.00 | 0.00 | 39 | 1001.6 |
| 20260504225027 | 10 | 313 | 4.8 | 12.9 | 0.00 | 0.00 | 0.00 | 37 | 1001.5 |
| 20260504224621 | 10 | 282 | 3.2 | 19.3 | 0.00 | 0.00 | 0.00 | 36 | 1001.4 |
| 20260504224020 | 10 | 314 | 6.4 | 19.3 | 0.00 | 0.00 | 0.00 | 36 | 1001.4 |
| 20260504223517 | 10 | 272 | 4.8 | 19.3 | 0.00 | 0.00 | 0.00 | 36 | 1001.4 |
| 20260504223014 | 11 | 254 | 8.0 | 19.3 | 0.00 | 0.00 | 0.00 | 32 | 1001.3 |
| 20260504222512 | 11 | 306 | 6.4 | 17.7 | 0.00 | 0.00 | 0.00 | 35 | 1001.5 |
| 20260504222009 | 11 | 279 | 4.8 | 20.9 | 0.00 | 0.00 | 0.00 | 33 | 1001.5 |
| 20260504221507 | 11 | 284 | 8.0 | 16.1 | 0.00 | 0.00 | 0.00 | 34 | 1001.4 |
| 20260504221003 | 11 | 316 | 6.4 | 14.5 | 0.00 | 0.00 | 0.00 | 32 | 1001.6 |
| 20260504220601 | 11 | 275 | 6.4 | 17.7 | 0.00 | 0.00 | 0.00 | 33 | 1001.8 |
| 20260504220200 | 11 | 277 | 8.0 | 19.3 | 0.00 | 0.00 | 0.00 | 34 | 1001.8 |
| 20260504215556 | 11 | 296 | 4.8 | 19.3 | 0.00 | 0.00 | 0.00 | 30 | 1001.9 |
| 20260504215054 | 11 | 276 | 3.2 | 17.7 | 0.00 | 0.00 | 0.00 | 32 | 1002.0 |
| 20260504214556 | 11 | 286 | 6.4 | 17.7 | 0.00 | 0.00 | 0.00 | 32 | 1001.9 |
| 20260504214049 | 11 | 281 | 6.4 | 14.5 | 0.00 | 0.00 | 0.00 | 32 | 1001.9 |
| 20260504213546 | 11 | 275 | 3.2 | 16.1 | 0.00 | 0.00 | 0.00 | 34 | 1002.2 |
| 20260504213043 | 11 | 319 | 6.4 | 17.7 | 0.00 | 0.00 | 0.00 | 36 | 1002.2 |
| 20260504212541 | 11 | 294 | 4.8 | 17.7 | 0.00 | 0.00 | 0.00 | 32 | 1002.3 |
| 20260504212041 | 11 | 266 | 0.0 | 16.1 | 0.00 | 0.00 | 0.00 | 34 | 1002.2 |
| 20260504211033 | 11 | 321 | 1.6 | 16.1 | 0.00 | 0.00 | 0.00 | 33 | 1002.4 |
| 20260504210536 | 11 | 275 | 6.4 | 14.5 | 0.00 | 0.00 | 0.00 | 33 | 1002.5 |
| 20260504210035 | 11 | 293 | 1.6 | 14.5 | 0.00 | 0.00 | 0.00 | 34 | 1002.7 |
| 20260504205529 | 10 | 311 | 1.6 | 12.9 | 0.00 | 0.00 | 0.00 | 34 | 1002.7 |
| 20260504205025 | 10 | 202 | 1.6 | 17.7 | 0.00 | 0.00 | 0.00 | 33 | 1002.9 |
| 20260504204523 | 10 | 290 | 6.4 | 17.7 | 0.00 | 0.00 | 0.00 | 34 | 1003.0 |
| 20260504204027 | 10 | 319 | 3.2 | 20.9 | 0.00 | 0.00 | 0.00 | 36 | 1003.0 |
| 20260504203519 | 10 | 319 | 8.0 | 25.7 | 0.00 | 0.00 | 0.00 | 35 | 1002.9 |
| 20260504203117 | 10 | 306 | 12.9 | 25.7 | 0.00 | 0.00 | 0.00 | 33 | 1002.9 |
| 20260504202514 | 10 | 290 | 6.4 | 29.0 | 0.00 | 0.00 | 0.00 | 37 | 1003.0 |
| 20260504202011 | 10 | 317 | 12.9 | 27.4 | 0.00 | 0.00 | 0.00 | 37 | 1002.9 |
| 20260504201609 | 10 | 289 | 11.3 | 25.7 | 0.00 | 0.00 | 0.00 | 37 | 1003.0 |
| 20260504201009 | 10 | 284 | 8.0 | 17.7 | 0.00 | 0.00 | 0.00 | 39 | 1003.1 |
| 20260504200604 | 10 | 284 | 8.0 | 19.3 | 0.00 | 0.00 | 0.00 | 30 | 1003.1 |
| 20260504195558 | 11 | 304 | 3.2 | 14.5 | 0.00 | 0.00 | 0.00 | 28 | 1003.0 |
| 20260504195056 | 11 | 337 | 4.8 | 17.7 | 0.00 | 0.00 | 0.00 | 28 | 1002.9 |
| 20260504194602 | 11 | 296 | 8.0 | 17.7 | 0.00 | 0.00 | 0.00 | 29 | 1003.1 |
| 20260504194053 | 11 | 331 | 6.4 | 12.9 | 0.00 | 0.00 | 0.00 | 29 | 1003.0 |
| 20260504193550 | 12 | 5 | 4.8 | 20.9 | 0.00 | 0.00 | 0.00 | 29 | 1003.0 |
| 20260504192545 | 12 | 319 | 6.4 | 24.1 | 0.00 | 0.00 | 0.00 | 29 | 1003.2 |
| 20260504192043 | 12 | 344 | 11.3 | 24.1 | 0.00 | 0.00 | 0.00 | 29 | 1003.3 |
| 20260504191542 | 12 | 313 | 8.0 | 22.5 | 0.00 | 0.00 | 0.00 | 29 | 1003.3 |
| 20260504191036 | 11 | 342 | 8.0 | 19.3 | 0.00 | 0.00 | 0.00 | 32 | 1003.3 |
| 20260504190534 | 11 | 339 | 9.7 | 35.4 | 0.00 | 0.00 | 0.00 | 34 | 1003.5 |
| 20260504190035 | 10 | 294 | 11.3 | 35.4 | 0.00 | 0.00 | 0.00 | 35 | 1003.5 |
| 20260504185532 | 10 | 312 | 11.3 | 29.0 | 0.00 | 0.00 | 0.00 | 36 | 1003.7 |
| 20260504185026 | 10 | 323 | 11.3 | 29.0 | 0.00 | 0.00 | 0.00 | 35 | 1003.7 |
| 20260504184524 | 11 | 296 | 9.7 | 25.7 | 0.00 | 0.00 | 0.00 | 33 | 1003.8 |
| 20260504184020 | 10 | 330 | 11.3 | 25.7 | 0.00 | 0.00 | 0.00 | 33 | 1003.8 |
| 20260504183517 | 10 | 306 | 9.7 | 20.9 | 0.00 | 0.00 | 0.00 | 33 | 1004.0 |
| 20260504183014 | 11 | 324 | 8.0 | 20.9 | 0.00 | 0.00 | 0.00 | 35 | 1004.1 |
| 20260504182516 | 10 | 323 | 4.8 | 24.1 | 0.00 | 0.00 | 0.00 | 38 | 1004.2 |
| 20260504181604 | 10 | 355 | 11.3 | 33.8 | 0.00 | 0.00 | 0.00 | 39 | 1004.3 |
| 20260504181001 | 9 | 271 | 12.9 | 32.2 | 0.00 | 0.00 | 0.00 | 34 | 1004.3 |
| 20260504180600 | 8 | 293 | 19.3 | 38.6 | 0.00 | 0.00 | 0.00 | 34 | 1004.3 |
| 20260504180056 | 8 | 287 | 17.7 | 38.6 | 0.00 | 0.00 | 0.00 | 35 | 1004.2 |
| 20260504175556 | 8 | 299 | 14.5 | 32.2 | 0.00 | 0.00 | 0.00 | 35 | 1004.3 |
| 20260504175052 | 9 | 325 | 4.8 | 20.9 | 0.00 | 0.00 | 0.00 | 35 | 1004.2 |
| 20260504174550 | 9 | 313 | 8.0 | 25.7 | 0.00 | 0.00 | 0.00 | 37 | 1004.4 |
| 20260504174046 | 9 | 290 | 14.5 | 25.7 | 0.00 | 0.00 | 0.00 | 36 | 1004.4 |
| 20260504173645 | 9 | 326 | 12.9 | 24.1 | 0.00 | 0.00 | 0.00 | 33 | 1004.2 |
| 20260504173041 | 8 | 257 | 12.9 | 27.4 | 0.00 | 0.00 | 0.00 | 36 | 1004.3 |
| 20260504172538 | 8 | 292 | 11.3 | 32.2 | 0.00 | 0.00 | 0.00 | 36 | 1004.4 |
| 20260504172036 | 8 | 267 | 14.5 | 32.2 | 0.00 | 0.00 | 0.00 | 36 | 1004.5 |
| 20260504171534 | 9 | 289 | 14.5 | 22.5 | 0.00 | 0.00 | 0.00 | 36 | 1004.4 |
| 20260504171033 | 9 | 293 | 11.3 | 30.6 | 0.00 | 0.00 | 0.00 | 35 | 1004.5 |
| 20260504170530 | 10 | 300 | 12.9 | 30.6 | 0.00 | 0.00 | 0.00 | 36 | 1004.5 |
| 20260504160153 | 8 | 257 | 1.6 | 14.5 | 0.00 | 0.00 | 0.00 | 42 | 1005.1 |
| 20260504151023 | 5 | 275 | 8.0 | 22.5 | 0.00 | 0.00 | 0.00 | 53 | 1006.3 |
| 20260504150621 | 5 | 288 | 12.9 | 30.6 | 0.00 | 0.00 | 0.00 | 54 | 1006.5 |
| 20260504141049 | 3 | 226 | 0.0 | 4.8 | 0.00 | 0.00 | 0.00 | 54 | 1006.4 |
| 20260504130516 | 0 | 159 | 0.0 | 4.8 | 0.00 | 0.00 | 0.00 | 61 | 1005.9 |
| 20260504110554 | 0 | 171 | 0.0 | 4.8 | 0.00 | 0.00 | 0.00 | 60 | 1005.6 |
| 20260504100549 | 1 | 171 | 0.0 | 4.8 | 0.00 | 0.00 | 0.00 | 55 | 1005.6 |
| 20260504081534 | 1 | 224 | 0.0 | 0.0 | 0.00 | 0.00 | 0.00 | 51 | 1006.6 |
| 20260504081032 | 1 | 224 | 0.0 | 0.0 | 0.00 | 0.00 | 0.00 | 52 | 1006.7 |
| 20260504080531 | 1 | 224 | 0.0 | 0.0 | 0.00 | 0.00 | 0.00 | 53 | 1006.7 |
| 20260504050514 | 2 | 169 | 1.6 | 4.8 | 0.00 | 0.00 | 0.00 | 51 | 1008.1 |
| 20260504050009 | 2 | 288 | 3.2 | 4.8 | 0.00 | 0.00 | 0.00 | 50 | 1008.2 |
| 20260504045507 | 2 | 295 | 0.0 | 3.2 | 0.00 | 0.00 | 0.00 | 49 | 1008.1 |
| 20260504045007 | 2 | 295 | 0.0 | 1.6 | 0.00 | 0.00 | 0.00 | 48 | 1008.2 |
| 20260504044514 | 3 | 295 | 0.0 | 1.6 | 0.00 | 0.00 | 0.00 | 48 | 1008.1 |
| 20260504044007 | 3 | 296 | 0.0 | 1.6 | 0.00 | 0.00 | 0.00 | 48 | 1008.2 |
| 20260504043508 | 3 | 296 | 0.0 | 0.0 | 0.00 | 0.00 | 0.00 | 47 | 1008.3 |
| 20260504043009 | 3 | 296 | 0.0 | 0.0 | 0.00 | 0.00 | 0.00 | 47 | 1008.3 |
| 20260504042507 | 3 | 296 | 0.0 | 0.0 | 0.00 | 0.00 | 0.00 | 47 | 1008.3 |
| 20260504042007 | 3 | 296 | 0.0 | 0.0 | 0.00 | 0.00 | 0.00 | 47 | 1008.4 |
| 20260504041507 | 3 | 296 | 0.0 | 0.0 | 0.00 | 0.00 | 0.00 | 46 | 1008.4 |
| 20260504041007 | 3 | 296 | 0.0 | 0.0 | 0.00 | 0.00 | 0.00 | 47 | 1008.5 |
| 20260504040506 | 3 | 296 | 0.0 | 0.0 | 0.00 | 0.00 | 0.00 | 46 | 1008.4 |
| 20260504040006 | 3 | 296 | 0.0 | 0.0 | 0.00 | 0.00 | 0.00 | 46 | 1008.3 |